Regional Weather Roundup
Issued by NWS Sterling, VA

Home | Current Version | Previous Version | Text Only | Print | Product List | Glossary Off
Versions: 1 2 3 4 5 6 7 8 9 10 11 12 13 14 15 16 17 18 19 20 21 22 23 24 25 26 27 28 29 30 31 32 33 34 35 36 37 38 39 40 41 42 43 44 45 46 47 48 49 50

000
ASUS41 KLWX 280810
RWRLWX

REGIONAL WEATHER ROUNDUP
NATIONAL WEATHER SERVICE BALTIMORE MD/WASHINGTON DC
400 AM EDT THU MAY 28 2015

Note: "FAIR" indicates few or no clouds below 12,000 feet
with no significant weather and/or obstructions to visibility.
 TC=TEMPERATURE CELSIUS

 * =Non NWS site. Station does not report precipitation (e.g. rain,
    snow, etc.), thunder, or fog.

DCZ001-MDZ009-015-VAZ040>042-051-053>054-280900-
WASHINGTON METRO

CITY           SKY/WX    TMP DP  RH WIND       PRES   REMARKS
WASHINGTON NAT PTCLDY    75  69  81 S8        30.12S
DULLES         CLOUDY    69  68  96 S6        30.12S
ANDREWS AFB    CLEAR     71  68  91 S8        30.12S
FT BELVOIR     CLEAR     66  65  96 SE2       30.12S
QUANTICO       CLEAR     74  66  76 SW5       30.13S
COLLEGE PARK*  CLEAR     68  68 100 CALM      30.12S
LEESBURG*      PTCLDY    70  70 100 CALM      30.12F
MANASSAS*      PTCLDY    66  66 100 CALM      30.12S
GAITHERSBURG*  PTCLDY    66  64  94 CALM      30.16S

$$

MDZ006>007-011-014-280900-
BALTIMORE METRO

CITY           SKY/WX    TMP DP  RH WIND       PRES   REMARKS
BWI AIRPORT    PTCLDY    69  67  93 CALM      30.11S
MD SCIENCE CTR   N/A     72  69  90 MISG      30.12S
MARTIN STATE   PTCLDY    72  72 100 SE8       30.13S
ANNAPOLIS      CLEAR     72  68  87 S3        30.11S
FORT MEADE*    PTCLDY    63  61  94 CALM      30.14S

$$

MDZ012-015-019>023-280900-
MARYLAND EASTERN SHORE

CITY           SKY/WX    TMP DP  RH WIND       PRES   REMARKS
OCEAN CITY     MOCLDY    68  64  87 S8        30.17S
SALISBURY      PTCLDY    67  65  93 S5        30.16S
BAY BRIDGE AP*   N/A    N/A N/A N/A S8        30.12F
CAMBRIDGE*     PTCLDY    72  66  83 S5        30.14F
EASTON*        PTCLDY    73  72  95 SW7       30.17S

$$

MDZ017>025-280900-
SOUTHERN MARYLAND

CITY           SKY/WX    TMP DP  RH WIND       PRES   REMARKS
PATUXENT RIVER PTCLDY    72  66  81 SW13      30.14S
ST INIGOES     CLOUDY    73  67  81 S10       30.15S
LEONARDTOWN*   PTCLDY    70  64  83 S5        30.16S

$$

MDZ003>005-280900-
NORTH CENTRAL MARYLAND

CITY           SKY/WX    TMP DP  RH WIND       PRES   REMARKS
FREDERICK*     PTCLDY    64  64 100 CALM      30.14F FOG
HAGERSTOWN APT CLEAR     70  66  87 S3        30.13S
WESTMINSTER*   MOCLDY    72  66  83 W8        30.13F

$$

MDZ501>502-280900-
WESTERN MARYLAND

CITY           SKY/WX    TMP DP  RH WIND       PRES   REMARKS
OAKLAND*       CLEAR     63 N/A N/A W6        30.24S
CUMBERLAND*    CLEAR     63  63 100 CALM      30.19S

$$

VAZ025>031-280900-
SHENANDOAH VALLEY

CITY           SKY/WX    TMP DP  RH WIND       PRES   REMARKS
WINCHESTER*    PTCLDY    70  61  73 W3        30.14R
FRONT ROYAL*   FAIR      66  63  88 S3        30.13S
LURAY*         FAIR      64  64 100 CALM      30.16S
NEW MARKET*    FAIR      62  61  98 CALM      30.15S
STAUNTON*      CLEAR     64  62  93 CALM      30.19S
WAYNESBORO*    FAIR      63  61  93 CALM      30.19S

$$

WVZ021-048>050-054>055-280900-
EASTERN WEST VIRGINIA PANHANDLE

CITY           SKY/WX    TMP DP  RH WIND       PRES   REMARKS
MARTINSBURG    PTCLDY    64  62  93 CALM      30.14R
PETERSBURG*    CLEAR     60  58  91 CALM      30.17S FOG

$$

VAZ036>039-050-280900-
CENTRAL FOOTHILLS

CITY           SKY/WX    TMP DP  RH WIND       PRES   REMARKS
CHARLOTTESVILL PTCLDY    67  64  90 S6        30.14F
CULPEPER*      PTCLDY    64  63  98 CALM      30.13F
ORANGE*        PTCLDY    68  64  88 S6        30.15S
GORDONSVILLE*  FAIR      65  64  94 CALM      30.13F
WARRENTON*     FAIR      69  67  92 SW3       30.12F

$$

VAZ055>057-280900-
NORTH AND CENTRAL PIEDMONT

CITY           SKY/WX    TMP DP  RH WIND       PRES   REMARKS
FREDERICKSBRG* CLEAR     73  67  81 SW6       30.12S
STAFFORD*      PTCLDY    70  64  82 CALM      30.17S

$$

NCZ024-NYZ072-PAZ021-071-VAZ022-071-280900-
OTHER REGIONAL OBSERVATIONS

CITY           SKY/WX    TMP DP  RH WIND       PRES   REMARKS
NEW YORK CITY  PTCLDY    70  66  87 VRB6      30.15S
PHILADELPHIA   PTCLDY    71  67  87 S8        30.13S
PITTSBURGH     PTCLDY    64  60  87 CALM      30.15S
ROANOKE        PTCLDY    66  63  90 CALM      30.20F
RICHMOND       MOCLDY    71  68  90 S6        30.16S
RALEIGH        PTCLDY    69  67  93 SW8       30.19F

$$

ANZ530>537-280900-
MARINE OBSERVATIONS

STATION/POSITION TIME  TEMP    WIND        PRES
                       AIR SEA DIR/SP/G
                 (UTC) (F)     (DEG/KT/KT) (MB)
THOMAS PT LIGHT  0800   70 69  170/ 14/ 14 1020.5S
BALT KEY BRIDGE  0700   72     120/  5/  6 1019.6F
COVE POINT       0700   72     220/ 11/ 13 1021.4F
LEWISETTA        0700   73 76              1020.9F
SOLOMONS ISLAND  0700      71                N/A
PINEY POINT      0700          240/ 14/ 16   N/A

$$



USA.gov is the U.S. government's official web portal to all federal, state and local government web resources and services.